Theta_e
338 319 318 316 302 302 296 298 310 320 320 325 328 326 324 327 322 314 341 340 348 347 361 364 367 365 363 362 361 360 361 361 361 361 362 362 362 362 363 363 363 362 361 359 359 360 362 362 362
326 320 313 305 299 297 297 301 317 319 323 325 327 326 325 322 334 333 337 346 346 345 358 363 367 365 363 363 361 361 361 361 361 360 361 361 362 361 362 363 363 363 360 359 359 360 360 361 361
321 321 304 303 297 296 295 299 319 322 325 326 326 329 327 327 333 336 344 346 347 353 359 362 366 365 364 362 361 361 361 361 360 360 361 361 361 361 361 362 364 362 359 359 359 360 360 360 360
315 306 304 299 299 301 301 300 321 323 328 332 329 330 334 339 335 345 351 350 353 353 359 364 365 365 364 362 362 361 361 361 360 360 360 361 361 361 360 361 363 363 362 360 360 361 360 359 359
307 301 296 297 298 306 303 306 308 310 314 328 330 329 333 340 348 345 341 342 339 345 354 362 364 364 364 363 362 361 362 362 362 361 360 361 361 361 361 361 362 363 363 362 361 361 360 359 359
300 297 291 290 297 304 305 305 307 305 307 316 318 319 324 349 345 342 342 340 340 336 352 357 363 364 363 363 362 361 361 361 362 362 362 362 362 361 362 361 361 362 362 362 362 361 360 358 357
297 294 289 289 295 299 304 306 304 305 307 307 312 306 308 325 346 342 343 340 337 336 349 352 358 361 363 362 361 360 360 360 360 361 361 361 361 360 361 361 360 361 360 360 361 360 359 358 356
299 295 290 290 292 296 304 304 305 305 305 312 313 306 303 312 345 343 339 339 342 348 350 350 354 356 357 359 362 361 360 360 359 360 360 360 361 360 360 358 359 360 360 359 359 360 359 358 356
298 291 288 291 295 297 302 300 306 308 307 308 310 309 312 317 347 346 343 347 350 349 349 349 351 350 351 354 358 360 361 361 360 360 360 357 355 355 356 358 358 361 360 359 359 358 357 356 356
296 290 291 299 297 295 297 300 302 304 304 305 308 312 315 316 316 320 317 329 326 340 345 330 332 348 348 351 352 352 355 356 356 355 354 353 351 351 355 357 359 359 360 360 358 357 357 355 344
295 293 298 301 302 300 300 300 302 302 299 305 306 309 312 313 312 314 316 319 321 323 325 328 329 330 330 336 347 347 349 350 351 352 352 351 352 349 352 349 352 352 357 353 355 353 351 346 343
294 299 301 302 302 300 300 302 301 301 302 308 308 309 308 310 309 310 315 318 319 323 324 324 328 330 330 330 330 331 331 342 346 346 347 349 348 344 345 348 347 347 349 350 349 349 348 345 344
298 298 302 301 300 299 302 301 300 299 306 308 309 309 308 308 310 312 316 320 323 322 323 324 325 326 328 329 329 328 329 329 331 345 346 347 346 345 343 341 344 346 347 349 346 345 345 344 343
299 299 300 299 298 300 300 301 302 303 306 306 307 306 305 306 308 314 319 321 322 321 321 322 322 322 322 323 322 325 328 328 328 331 338 347 346 346 343 342 341 345 346 347 346 344 342 342 341
301 299 299 299 299 299 302 299 300 305 306 303 304 305 306 307 308 314 319 320 321 321 321 321 321 321 321 321 321 323 324 327 326 328 330 334 343 345 346 341 341 344 346 345 346 345 341 340 340
298 295 290 299 300 301 300 293 301 305 303 302 304 305 307 307 307 315 320 321 320 320 319 319 322 320 321 318 319 319 321 318 320 321 325 330 334 337 346 347 343 346 342 343 342 343 341 340 339
294 289 291 296 299 300 297 294 301 303 303 302 302 303 305 305 308 318 320 320 319 320 319 317 317 320 321 317 317 317 318 316 317 318 320 325 331 329 334 346 346 344 341 338 337 336 335 335 335
289 290 291 292 298 297 295 295 301 303 302 302 301 302 303 304 308 317 318 319 319 319 319 318 318 319 320 317 316 317 317 316 317 318 320 319 324 324 332 333 345 345 340 338 338 336 335 334 334
295 293 292 295 299 297 294 295 297 300 298 299 300 300 301 302 315 318 318 319 318 318 317 318 317 316 318 315 315 315 314 314 316 317 318 319 321 322 327 326 335 341 340 339 338 336 337 338 335
297 293 292 295 298 295 294 293 296 299 299 303 302 302 303 308 313 315 317 317 317 316 316 317 317 316 318 315 316 317 314 314 316 315 316 318 320 321 322 323 328 337 337 335 335 336 333 336 335
293 293 292 292 296 295 294 291 295 300 303 305 305 306 306 307 309 311 314 314 314 315 316 317 316 316 318 317 315 314 312 312 312 313 315 317 319 321 321 323 327 334 334 333 333 333 334 332 332
291 298 297 296 291 286 293 283 292 295 299 302 303 304 305 305 307 308 310 311 312 313 315 314 315 315 317 316 313 311 310 309 310 312 314 315 316 319 322 324 327 329 332 326 327 327 330 330 328
295 299 295 295 290 286 289 285 289 295 295 297 301 305 304 305 306 307 309 312 314 314 313 313 313 314 315 315 314 312 311 312 312 312 311 311 314 316 321 321 321 320 323 328 329 330 329 332 331
300 295 293 290 287 282 287 287 285 291 295 297 300 304 306 306 306 307 308 311 313 315 316 317 314 313 314 314 315 313 312 310 311 309 309 310 310 314 314 318 318 319 319 320 323 327 330 332 333
295 288 280 280 279 280 289 287 287 296 298 299 300 303 306 306 307 307 308 309 311 314 317 319 318 317 315 314 314 314 312 312 310 309 308 309 311 309 311 314 316 318 318 319 317 316 322 323 326
291 288 280 277 277 283 289 284 288 298 300 301 302 303 306 304 305 307 308 310 310 313 313 315 315 316 315 314 313 312 312 310 310 309 311 309 309 311 314 314 316 317 319 321 322 321 320 320 324
292 286 291 284 285 281 285 289 295 298 298 299 300 301 301 303 304 306 308 308 309 310 311 312 312 312 312 312 312 309 309 310 309 310 309 310 310 312 312 313 314 316 318 320 320 322 323 320 324
293 295 284 284 278 278 283 286 287 292 294 295 296 298 299 301 302 303 304 306 308 308 308 307 309 310 308 309 308 309 308 309 309 309 307 307 307 309 311 312 313 315 316 318 318 320 324 323 324
291 288 289 287 285 280 280 282 294 292 293 293 295 299 299 300 302 302 302 303 304 303 306 306 305 303 303 305 305 305 306 307 306 305 305 306 306 307 307 309 310 310 311 313 316 318 322 323 322
294 290 289 283 282 284 284 282 295 296 295 297 298 298 297 298 298 302 301 302 301 301 301 302 303 303 303 304 303 303 303 304 303 303 304 304 303 304 305 306 307 308 309 312 315 317 320 323 321
Wind_Speed
9 4 3 4 5 5 5 6 4 7 3 5 2 5 12 7 7 6 7 14 8 6 3 5 7 9 9 10 12 13 14 14 13 12 11 11 13 13 13 13 12 12 13 12 11 10 10 11 12
4 4 4 2 6 5 7 4 8 6 8 10 7 7 1 6 4 4 4 7 6 5 3 2 8 9 9 7 9 10 12 12 12 13 13 11 10 10 11 11 10 11 12 11 10 9 8 8 10
4 2 4 5 4 3 3 5 10 13 16 7 4 1 4 7 9 5 12 8 4 6 6 5 10 10 10 10 8 8 9 10 10 11 11 12 11 9 7 8 8 9 11 11 9 7 6 5 7
3 5 4 6 1 2 1 4 13 8 8 4 2 5 4 4 8 7 25 20 10 6 6 12 11 11 13 12 11 11 10 9 9 10 11 11 11 9 9 8 8 8 9 9 9 8 6 4 4
4 4 5 3 4 4 4 5 10 6 2 5 7 3 4 2 19 32 20 8 7 6 7 5 14 15 14 13 12 12 11 11 10 10 11 12 11 9 8 8 9 9 9 9 9 8 7 6 5
5 4 5 3 5 2 3 4 8 5 6 3 7 8 4 10 27 29 30 24 24 13 9 5 11 16 16 15 13 12 13 12 11 10 10 11 11 11 10 10 9 8 8 8 8 7 7 7 7
5 5 3 2 7 5 5 5 6 6 9 4 4 5 6 13 27 25 25 12 10 7 8 4 5 7 11 15 16 16 14 13 12 11 10 10 10 10 10 10 10 9 8 8 7 8 8 8 8
5 5 5 3 4 2 3 2 7 7 1 2 4 1 3 10 28 18 8 3 4 5 5 3 3 4 2 2 8 10 12 14 15 14 12 11 11 10 10 10 10 10 10 9 8 8 8 9 9
5 6 2 4 4 4 6 4 1 2 5 3 2 6 6 13 23 16 11 7 4 7 4 0 3 3 3 2 1 1 4 7 10 11 13 11 5 7 9 9 11 12 12 11 10 10 10 10 10
5 4 3 1 3 2 2 4 3 4 4 4 5 3 7 13 18 15 11 13 7 10 6 3 3 6 2 1 4 1 3 3 4 4 4 4 5 5 8 10 14 14 14 13 12 11 11 9 4
4 5 3 2 4 4 4 7 3 3 3 6 10 4 3 7 13 17 14 15 13 9 6 4 7 9 6 6 2 1 2 3 3 5 4 4 4 4 5 3 5 5 11 5 8 7 6 6 5
5 0 5 5 3 3 1 1 5 4 3 10 10 8 5 5 5 15 16 14 10 8 9 5 7 7 6 4 3 3 4 3 3 5 7 4 4 4 5 4 5 5 4 6 5 4 5 5 6
4 3 5 4 5 2 2 2 3 2 5 8 8 6 8 6 6 10 9 9 9 12 7 8 7 7 5 5 3 1 3 3 5 4 5 5 6 6 5 5 5 5 4 6 5 5 5 6 6
1 2 5 4 2 0 1 2 3 6 4 5 9 9 7 8 8 9 9 11 9 8 7 6 8 6 6 6 4 1 2 3 4 4 4 6 6 5 5 4 5 4 6 6 6 7 6 7 5
4 8 7 5 2 4 5 6 5 8 2 7 8 8 9 8 10 11 7 9 10 7 7 9 9 8 9 8 7 5 5 6 2 4 7 8 5 6 6 4 4 7 8 9 7 7 4 4 5
5 6 5 11 5 5 6 9 10 13 3 5 9 9 9 8 8 12 10 11 8 10 9 7 7 8 8 7 6 5 7 5 5 4 0 6 8 10 7 6 6 6 5 6 6 5 5 6 6
7 1 2 9 2 2 3 8 9 12 8 3 7 7 8 8 8 11 11 12 10 11 10 8 8 8 8 7 5 5 5 5 6 5 5 8 6 10 8 5 7 5 4 3 4 2 2 3 4
3 3 3 3 4 0 3 8 9 8 5 8 8 9 9 10 9 13 14 12 11 11 9 9 7 8 7 5 4 4 4 5 4 6 8 7 7 10 7 7 7 5 3 2 1 3 3 3 4
3 1 3 4 6 6 1 7 8 9 6 9 11 10 9 7 14 17 15 14 12 10 10 9 9 7 5 4 4 4 2 3 4 4 6 7 7 8 8 7 7 4 4 4 4 4 8 8 3
7 5 4 4 6 5 8 7 6 7 13 21 17 16 8 8 16 17 14 12 11 9 9 9 8 8 7 5 3 3 1 3 3 4 5 5 7 7 8 8 9 7 3 3 5 6 5 4 3
3 5 2 3 5 5 6 6 9 10 16 22 25 23 21 13 9 4 2 5 7 10 9 9 8 9 7 7 3 0 2 2 3 3 3 5 6 8 7 8 8 10 5 4 6 8 8 7 3
3 4 2 6 7 2 3 7 7 6 16 19 16 18 20 20 16 15 15 11 8 7 7 6 6 7 4 7 4 4 2 2 3 2 3 5 5 5 6 8 9 8 7 6 6 4 4 2 5
1 5 3 2 3 4 7 4 5 7 11 9 7 10 10 10 12 12 12 11 9 12 9 8 7 6 1 3 5 5 5 4 3 2 5 4 4 4 5 5 6 9 5 6 6 9 6 6 6
4 8 8 6 3 4 2 3 6 3 4 2 4 7 8 7 6 6 5 5 4 5 6 6 7 7 7 5 6 7 7 6 3 4 4 4 2 2 4 6 6 7 9 7 6 8 11 10 8
10 8 6 6 6 5 4 4 6 5 4 3 5 6 5 5 6 7 8 6 4 3 1 3 5 6 9 9 7 7 8 7 5 5 4 4 3 2 4 5 5 4 8 11 7 6 6 5 4
2 7 6 4 4 9 5 4 6 2 6 4 5 4 4 3 3 3 1 5 4 7 6 8 7 8 9 8 8 8 8 5 4 5 4 3 1 2 4 5 6 7 9 9 10 6 6 6 7
7 5 5 3 3 2 4 3 4 10 8 7 5 7 7 6 5 2 4 1 4 7 9 8 7 9 9 11 9 8 7 6 6 5 3 2 2 2 5 6 6 8 10 11 10 9 10 7 8
3 4 7 5 5 6 4 2 5 10 8 10 9 5 5 7 8 9 6 3 5 7 8 7 8 10 10 7 4 5 6 5 3 3 4 4 4 3 5 5 6 7 8 11 12 10 11 8 8
8 7 4 3 3 1 4 5 5 5 5 8 8 5 7 7 7 8 8 9 8 7 7 7 6 4 5 5 4 5 5 4 3 3 4 4 3 5 5 6 9 10 9 11 12 12 12 11 8
3 2 3 3 6 5 3 6 6 9 7 11 9 9 9 8 8 7 7 7 6 6 6 4 5 4 4 4 4 4 5 5 5 5 5 4 5 5 6 8 10 11 12 11 13 12 10 12 11
Wind_Direction
300 260 153 51 50 62 329 36 20 133 343 274 197 180 183 136 155 205 220 198 201 290 240 161 144 138 138 138 139 138 133 128 122 113 104 102 106 109 112 115 114 118 119 118 115 110 103 98 97
304 357 41 80 75 55 305 89 65 124 177 116 91 108 233 78 29 336 87 220 175 264 260 166 143 141 141 142 143 140 137 132 131 129 121 111 100 107 115 118 120 125 125 124 121 118 113 107 105
299 138 78 88 96 100 303 43 137 154 166 207 142 47 58 93 68 205 355 74 106 163 177 174 150 143 145 148 148 141 135 135 135 132 130 129 125 120 118 121 127 135 137 135 132 129 129 127 121
10 13 19 85 73 178 179 39 159 147 250 215 115 68 110 157 141 43 44 24 37 0 271 159 154 150 154 155 153 150 140 142 145 148 143 143 143 144 146 145 147 152 152 150 151 154 159 170 160
36 60 41 38 232 194 117 112 110 96 102 194 173 121 35 80 106 93 90 11 288 228 237 205 162 157 157 158 159 152 150 155 158 162 161 157 155 162 164 164 170 169 170 168 171 175 178 195 210
15 81 43 344 288 340 53 79 92 86 11 110 66 104 110 119 127 130 137 184 215 189 199 196 184 161 159 160 159 160 160 163 163 172 174 170 168 176 177 177 184 187 185 185 184 194 204 212 225
119 80 202 302 288 336 158 123 97 107 86 44 182 89 151 124 138 154 160 192 226 68 159 177 173 174 162 165 167 167 166 166 171 177 184 182 182 188 193 188 190 196 202 204 203 207 218 227 236
112 90 8 250 280 223 140 103 127 117 124 135 53 357 61 96 144 143 135 218 352 43 94 112 157 150 151 170 180 177 173 175 176 179 186 189 191 199 204 204 206 207 208 209 212 217 227 238 248
110 63 298 297 32 348 343 113 325 123 110 72 107 137 108 87 138 138 154 167 167 90 86 237 199 156 140 138 185 317 218 204 198 194 192 191 190 197 208 205 212 214 216 214 212 214 221 233 248
93 103 242 149 119 68 340 48 22 33 57 83 97 28 99 93 103 128 116 128 112 123 126 92 26 179 146 151 104 6 297 277 272 253 221 207 203 207 210 216 211 215 214 216 214 215 222 227 229
160 174 193 324 117 83 11 15 294 117 35 203 146 145 54 91 111 118 119 120 121 126 109 84 56 64 45 42 77 295 278 245 254 270 256 236 226 228 229 213 225 217 220 211 214 218 217 209 212
83 329 138 199 107 83 47 323 352 57 237 161 139 142 116 130 147 135 135 140 142 131 125 129 95 91 82 82 66 353 351 301 242 233 225 222 240 227 234 226 215 202 208 209 205 206 211 221 225
72 10 347 164 149 146 125 319 198 258 194 155 146 144 143 157 202 78 117 125 135 116 113 103 118 113 113 91 90 339 325 314 307 282 241 215 226 233 229 237 223 212 194 201 200 209 214 224 233
315 37 319 287 237 355 304 269 52 269 130 217 157 172 178 165 170 131 145 141 133 119 114 133 113 116 90 76 53 44 207 283 331 325 313 240 244 243 217 234 232 225 203 199 202 203 207 223 212
13 356 343 301 274 200 138 328 274 259 317 237 204 180 174 187 148 156 135 117 118 104 107 69 58 47 49 34 25 17 8 10 84 318 321 319 279 249 256 241 234 229 213 203 204 215 201 210 214
21 55 347 284 173 262 106 255 269 277 309 257 197 200 199 203 191 150 138 125 121 116 104 99 108 92 69 54 35 11 357 0 347 359 224 292 321 330 291 242 229 230 255 217 199 203 206 220 223
10 247 284 319 80 77 126 250 288 319 336 282 226 229 235 232 101 136 140 142 144 137 136 126 104 87 84 66 47 36 358 351 343 347 1 360 1 354 342 296 251 226 183 239 306 289 254 249 240
241 308 301 286 300 288 339 308 325 305 320 285 270 264 252 223 160 148 153 159 153 149 147 132 119 111 98 73 46 27 7 355 353 353 357 359 8 351 350 337 306 256 180 164 22 14 301 237 251
173 215 293 289 356 25 178 231 270 304 331 314 289 266 250 187 169 162 160 161 159 158 147 141 126 144 120 81 43 2 358 327 340 347 347 356 4 346 338 330 327 286 218 171 166 205 264 286 200
33 54 354 312 350 49 329 316 305 326 356 347 319 302 193 162 161 166 166 168 168 157 151 139 153 150 117 112 138 163 254 279 280 317 334 356 352 350 341 323 324 321 286 173 198 213 266 258 200
53 82 340 244 327 342 356 342 357 23 40 36 34 39 36 29 24 27 181 184 169 171 158 158 172 121 127 120 100 353 81 312 329 332 337 355 358 338 327 321 320 324 298 234 208 225 218 246 257
27 295 330 341 40 322 20 286 332 32 34 38 32 34 39 37 41 32 24 27 32 14 19 23 63 101 139 139 135 182 173 223 225 255 296 323 354 339 335 359 355 345 317 288 263 216 215 204 251
272 29 0 299 339 54 340 68 270 1 21 8 25 66 63 61 61 50 48 47 20 34 24 22 50 68 47 242 182 192 202 213 245 250 301 308 322 356 350 343 331 324 314 296 287 281 243 223 220
321 18 29 24 61 48 216 106 322 3 279 300 22 43 56 90 85 83 124 87 43 40 48 20 1 337 326 293 262 229 217 222 244 301 298 306 320 329 331 330 326 322 322 317 300 294 281 275 259
43 44 341 359 359 232 306 41 235 233 237 76 52 55 33 17 28 33 44 53 56 74 123 130 251 274 283 281 279 257 231 226 221 247 260 300 309 331 317 315 316 305 306 305 288 262 267 285 281
355 125 149 283 242 280 293 224 189 330 65 58 63 59 60 39 174 107 170 215 204 198 218 268 241 239 233 255 267 256 238 232 233 234 239 253 248 282 279 293 294 295 296 296 296 285 264 258 248
321 10 215 223 237 332 212 5 219 49 35 23 44 42 2 357 333 84 216 300 271 269 255 248 273 272 272 268 272 250 243 240 244 261 280 295 300 288 319 304 297 292 297 296 294 293 285 261 253
104 275 9 3 334 306 341 339 263 360 350 350 343 342 347 340 343 336 331 280 250 265 275 282 264 268 281 298 309 310 311 300 315 359 321 325 321 326 316 304 293 290 297 297 294 291 288 274 269
339 8 7 132 153 232 288 259 16 24 300 331 327 333 345 335 319 314 318 324 325 332 319 312 334 342 357 25 13 9 348 343 329 298 298 318 310 300 295 299 289 286 286 284 278 277 282 281 272
238 261 148 136 283 239 202 257 61 40 18 15 354 353 335 331 317 292 289 294 310 325 340 333 327 339 323 317 319 308 297 297 294 283 276 269 271 280 279 283 281 283 280 274 267 274 277 276 272